Location: Unspecified
(0.0000°N, 0.0000°E)
Time: 06:35:15
(UTC+00:00)

Transit 2A Rocket - Pass Details

Date: 29 November 2019
Orbit: 594 x 909 km, 66.7° (Epoch: 11 December)

Event Time Altitude Azimuth Distance (km) Brightness Sun altitude
Rises 16:57:48 0° 188° (S) 3,364 8.8 11.7°
Reaches altitude 10° 17:00:28 10° 181° (S) 2,380 7.9 11.1°
Maximum altitude 17:05:35 42° 111° (ESE) 1,074 5.6 9.9°
Drops below altitude 10° 17:10:15 10° 41° (NE) 2,171 6.9 8.8°
Sets 17:12:35 0° 34° (NNE) 3,037 7.6 8.3°
